Date String (YYYY-MM-DD hh:mm:ss) UTC,Instrument flags,Ambient pressure (hPa),Sample flow (lpm),Bypass flow (lpm),Sample temperature (°C),Ambient temperature (°C),ASC tube jacket temperature (°C),LED temperature (°C),Box temperature (°C),Sample RH (%),Span deviation,Mass concentration (μg/m³),Mass concentration (μg/m³),Mass concentration (μg/m³)
DateTimeUTC,F1_M11,P_M11,Q1_M11,Q2_M11,T1_M11,T2_M11,T3_M11,T4_M11,T5_M11,U1_M11,ZSPAN_M11,X0_M11,X2_M11,X1_M11
2021-11-10 11:00:00,,0820.9,5.00,0.00,26.5,25.6,00.0,35.5,28.2,16.2,-001.2,0024.69,0012.49,0010.56
2021-11-10 11:01:00,,0820.9,5.01,0.00,26.5,25.6,00.0,35.5,28.2,16.3,-001.3,0024.85,0012.32,0010.44
2021-11-10 11:02:00,,0820.8,5.00,0.00,26.5,25.6,00.0,35.5,28.2,16.0,-001.4,0024.27,0012.10,0010.23
2021-11-10 11:03:00,,0820.9,5.02,0.00,26.5,25.6,00.0,35.5,28.3,15.9,-001.5,0022.93,0011.89,0010.06
2021-11-10 11:04:00,,0820.9,4.99,0.00,26.5,25.6,00.0,35.5,28.2,15.6,-001.6,0021.22,0011.43,0009.72
2021-11-10 11:05:00,,0820.9,4.99,0.00,26.5,25.6,00.0,35.5,28.2,15.6,-001.5,0019.92,0011.01,0009.46
2021-11-10 11:06:00,,0820.8,5.02,0.00,26.5,25.6,00.0,35.5,28.2,15.4,-001.1,0018.92,0010.47,0009.01
2021-11-10 11:07:00,,0820.9,4.99,0.00,26.5,25.6,00.0,35.5,28.2,15.2,-000.8,0018.12,0009.99,0008.60
2021-11-10 11:08:00,,0820.9,4.99,0.00,26.4,25.5,00.0,35.5,28.2,14.9,-000.6,0016.21,0009.39,0008.10
2021-11-10 11:09:00,,0820.9,5.00,0.00,26.4,25.5,00.0,35.5,28.2,14.9,-000.2,0015.33,0008.85,0007.66
2021-11-10 11:10:00,,0820.8,5.01,0.00,26.4,25.5,00.0,35.5,28.2,15.0,-000.2,0014.52,0008.45,0007.33
2021-11-10 11:11:00,,0820.8,5.00,0.00,26.5,25.5,00.0,35.5,28.3,14.8,-000.4,0013.90,0007.96,0006.90
2021-11-10 11:12:00,,0820.8,4.98,0.00,26.5,25.6,00.0,35.5,28.2,14.9,-000.3,0012.71,0007.44,0006.45
2021-11-10 11:13:00,,0820.6,4.99,0.00,26.5,25.6,00.0,35.5,28.3,15.1,0000.1,0011.75,0007.10,0006.17
2021-11-10 11:14:00,,0820.7,5.00,0.00,26.5,25.6,00.0,35.5,28.3,15.0,0000.7,0011.28,0006.76,0005.88
2021-11-10 11:15:00,,0820.7,5.00,0.00,26.5,25.6,00.0,35.5,28.2,15.0,0000.6,0012.29,0006.61,0005.74
2021-11-10 11:16:00,,0820.7,4.99,0.00,26.5,25.6,00.0,35.5,28.2,15.0,0000.5,0012.39,0006.29,0005.47
2021-11-10 11:17:00,,0820.7,5.00,0.00,26.5,25.6,00.0,35.5,28.2,15.3,0000.6,0012.81,0006.27,0005.44
2021-11-10 11:18:00,,0820.8,5.01,0.00,26.5,25.6,00.0,35.5,28.2,15.7,0000.4,0013.86,0006.45,0005.56
2021-11-10 11:19:00,,0820.9,4.99,0.00,26.5,25.6,00.0,35.5,28.2,15.8,0000.5,0014.85,0006.93,0005.90
2021-11-10 11:20:00,,0820.8,5.00,0.00,26.4,25.6,00.0,35.5,28.2,16.0,0000.6,0015.79,0007.52,0006.36
2021-11-10 11:21:00,,0820.8,5.00,0.00,26.5,25.6,00.0,35.5,28.2,16.2,0000.4,0016.52,0007.97,0006.80
2021-11-10 11:22:00,,0820.9,4.99,0.00,26.4,25.5,00.0,35.5,28.2,16.6,0000.0,0017.30,0008.43,0007.26
2021-11-10 11:23:00,,0820.9,4.99,0.00,26.4,25.5,00.0,35.5,28.2,16.9,0000.4,0019.01,0009.05,0007.82
2021-11-10 11:24:00,,0820.9,5.02,0.00,26.4,25.5,00.0,35.5,28.2,17.1,0000.4,0021.62,0009.64,0008.29
2021-11-10 11:25:00,,0820.9,4.99,0.00,26.4,25.5,00.0,35.5,28.2,17.0,-000.2,0022.76,0010.14,0008.70
2021-11-10 11:26:00,,0820.9,4.99,0.00,26.4,25.5,00.0,35.5,28.2,16.9,-000.4,0023.04,0010.61,0009.12
2021-11-10 11:27:00,,0820.9,5.02,0.00,26.4,25.5,00.0,35.5,28.1,16.6,-000.5,0024.00,0011.11,0009.54
2021-11-10 11:28:00,,0820.9,4.99,0.00,26.4,25.5,00.0,35.5,28.1,16.3,-000.5,0024.34,0011.40,0009.76
2021-11-10 11:29:00,,0820.9,5.02,0.00,26.4,25.5,00.0,35.4,28.2,15.8,-000.5,0023.37,0011.24,0009.69
2021-11-10 11:30:00,,0820.9,5.01,0.00,26.4,25.5,00.0,35.4,28.2,16.0,-000.5,0022.85,0011.08,0009.60
2021-11-10 11:31:00,,0821.0,5.00,0.00,26.4,25.5,00.0,35.4,28.2,16.0,-000.9,0023.57,0011.02,0009.54
2021-11-10 11:32:00,,0821.0,5.00,0.00,26.4,25.5,00.0,35.4,28.2,16.0,-001.0,0024.24,0010.97,0009.45
2021-11-10 11:33:00,,0821.1,5.01,0.00,26.4,25.5,00.0,35.4,28.2,16.1,-000.5,0024.36,0010.89,0009.37
2021-11-10 11:34:00,,0821.0,5.00,0.00,26.4,25.5,00.0,35.4,28.2,16.1,-000.5,0023.57,0010.72,0009.20
2021-11-10 11:35:00,,0821.1,5.01,0.00,26.4,25.5,00.0,35.4,28.2,16.1,-000.6,0021.91,0010.47,0009.00
2021-11-10 11:36:00,,0821.0,4.99,0.00,26.4,25.5,00.0,35.4,28.2,16.2,-000.2,0021.15,0010.23,0008.85
2021-11-10 11:37:00,,0821.0,5.00,0.00,26.4,25.5,00.0,35.4,28.2,16.5,0000.3,0021.02,0010.22,0008.83
2021-11-10 11:38:00,,0821.0,5.00,0.00,26.4,25.5,00.0,35.4,28.2,16.7,0000.8,0020.54,0010.33,0008.89
2021-11-10 11:39:00,,0821.1,5.01,0.00,26.4,25.5,00.0,35.4,28.2,16.8,0000.6,0020.46,0010.56,0009.10
2021-11-10 11:40:00,,0821.1,5.01,0.00,26.4,25.5,00.0,35.4,28.2,16.9,0000.3,0022.08,0011.06,0009.47
2021-11-10 11:41:00,,0821.1,5.00,0.00,26.4,25.5,00.0,35.4,28.2,17.0,-000.1,0023.22,0011.58,0009.93
2021-11-10 11:42:00,,0821.1,4.99,0.00,26.4,25.5,00.0,35.4,28.2,17.0,0000.2,0023.54,0012.00,0010.29
2021-11-10 11:43:00,,0821.2,5.00,0.00,26.4,25.5,00.0,35.4,28.2,17.0,-000.0,0024.22,0012.42,0010.65
2021-11-10 11:44:00,,0821.2,5.00,0.00,26.4,25.5,00.0,35.4,28.2,17.0,-000.4,0024.86,0012.79,0010.93
2021-11-10 11:45:00,,0821.2,4.98,0.00,26.4,25.5,00.0,35.4,28.1,16.9,-000.7,0025.79,0013.12,0011.22
2021-11-10 11:46:00,,0821.3,5.00,0.00,26.4,25.5,00.0,35.4,28.1,16.9,-000.7,0026.58,0013.45,0011.48
2021-11-10 11:47:00,,0821.3,5.01,0.00,26.4,25.4,00.0,35.4,28.1,17.0,-000.8,0026.70,0013.74,0011.75
2021-11-10 11:48:00,,0821.3,4.98,0.00,26.4,25.4,00.0,35.4,28.1,17.1,-001.1,0026.68,0013.98,0011.92
2021-11-10 11:49:00,,0821.4,5.01,0.00,26.3,25.4,00.0,35.4,28.1,17.1,-001.4,0027.15,0014.05,0011.97
2021-11-10 11:50:00,,0821.4,5.00,0.00,26.3,25.4,00.0,35.4,28.1,17.0,-001.3,0027.70,0014.07,0011.97
2021-11-10 11:51:00,,0821.4,4.99,0.00,26.3,25.4,00.0,35.4,28.0,17.0,-001.1,0027.09,0013.97,0011.93
2021-11-10 11:52:00,,0821.4,5.00,0.00,26.3,25.4,00.0,35.4,28.0,17.1,-001.1,0027.91,0013.85,0011.80
2021-11-10 11:53:00,,0821.4,5.00,0.00,26.3,25.4,00.0,35.4,28.1,17.1,-001.2,0028.62,0013.64,0011.61
2021-11-10 11:54:00,,0821.3,5.02,0.00,26.3,25.4,00.0,35.4,28.1,17.0,-001.1,0029.41,0013.38,0011.41
2021-11-10 11:55:00,,0821.4,4.98,0.00,26.3,25.4,00.0,35.4,28.0,17.0,-001.0,0029.30,0013.12,0011.23
2021-11-10 11:56:00,,0821.4,5.00,0.00,26.3,25.3,00.0,35.3,28.0,17.0,-000.6,0029.33,0012.96,0011.07
2021-11-10 11:57:00,,0821.4,4.99,0.00,26.3,25.3,00.0,35.3,28.0,16.9,-000.5,0029.16,0012.79,0010.90
2021-11-10 11:58:00,,0821.4,5.01,0.00,26.3,25.3,00.0,35.3,28.0,16.8,-000.5,0029.57,0012.61,0010.70
2021-11-10 11:59:00,,0821.4,5.00,0.00,26.2,25.3,00.0,35.3,28.0,16.9,0000.0,0030.62,0012.42,0010.48
